GW6346 Weather Reports


time (UTC)temp
C
wind
direction
speed
KPH
gust
KPH
rain 1hr
cm
rain 24hr
cm
rain mn
cm
humidity
%
barometer
mb
20260510204520 28 132 3.2 16.1 0.00 0.18 0.00 61 1016.0
20260510203021 28 190 8.0 14.5 0.00 0.18 0.00 63 1016.1
20260510201523 28 109 4.8 19.3 0.00 0.20 0.00 65 1016.0
20260510200031 29 238 4.8 17.7 0.00 0.25 0.00 64 1015.8
20260510194542 29 141 3.2 14.5 0.00 0.36 0.00 64 1015.8
20260510193016 28 217 0.0 19.3 0.00 0.46 0.00 67 1015.8
20260510191526 28 138 6.4 17.7 0.00 0.53 0.00 66 1016.0
20260510190028 28 267 8.0 17.7 0.00 0.66 0.00 66 1016.3
20260510184525 28 215 3.2 14.5 0.00 0.71 0.00 68 1016.2
20260510183028 27 147 1.6 12.9 0.00 0.81 0.00 70 1016.4
20260510181530 27 41 0.0 11.3 0.00 0.94 0.00 69 1016.7
20260510180028 28 62 4.8 14.5 0.00 1.02 0.00 68 1016.7
20260510174525 27 115 1.6 11.3 0.00 1.09 0.00 71 1016.9
20260510173027 28 31 1.6 6.4 0.00 1.14 0.00 68 1017.1
20260510171517 28 32 4.8 9.7 0.00 1.19 0.00 66 1017.2
20260510170004 27 176 0.0 11.3 0.00 1.42 0.00 70 1017.3
20260510164503 26 113 0.0 8.0 0.00 1.55 0.00 74 1017.4
20260510163008 26 80 3.2 14.5 0.00 1.63 0.00 74 1017.5
20260510161512 25 51 3.2 9.7 0.00 1.65 0.00 79 1017.6
20260510160020 25 63 0.0 0.0 0.00 1.70 0.00 76 1017.5
20260510154504 25 76 0.0 0.0 0.00 1.83 0.00 80 1017.4
20260510153007 23 51 0.0 0.0 0.00 1.96 0.00 83 1017.3
20260510151511 23 59 0.0 0.0 0.00 2.01 0.00 84 1017.3
20260510150021 22 31 0.0 0.0 0.00 2.13 0.00 90 1017.6
20260510144532 22 148 0.0 0.0 0.00 2.29 0.00 95 1017.6
20260510143008 21 46 0.0 0.0 0.00 2.54 0.00 95 1017.7
20260510141514 20 56 0.0 0.0 0.00 2.64 0.00 95 1017.8
20260510140013 20 69 0.0 0.0 0.00 2.64 0.00 95 1017.7
20260510134521 20 57 0.0 0.0 0.00 2.77 0.00 95 1017.6
20260510133032 20 37 0.0 9.7 0.00 2.84 0.00 95 1017.3
20260510131505 19 67 0.0 0.0 0.00 2.95 0.00 95 1017.2
20260510130009 18 62 0.0 0.0 0.00 3.15 0.00 95 1017.2
20260510124518 18 51 0.0 0.0 0.00 4.04 0.00 95 1016.9
20260510123023 18 66 0.0 0.0 0.00 4.98 0.00 95 1016.7
20260510121525 18 51 0.0 0.0 0.00 4.98 0.00 95 1016.6
20260510120028 18 61 0.0 0.0 0.00 4.98 0.00 95 1016.3
20260510114512 18 61 0.0 0.0 0.00 4.98 0.00 95 1016.0
20260510113019 18 62 0.0 0.0 0.00 4.98 0.00 95 1015.7
20260510111521 18 69 0.0 0.0 0.00 4.98 0.00 95 1015.2
20260510110026 18 65 0.0 0.0 0.00 4.98 0.00 95 1014.9
20260510104535 18 70 0.0 0.0 0.00 4.98 0.00 95 1014.6
20260510103016 18 61 0.0 0.0 0.00 4.98 0.00 95 1014.3
20260510101519 18 58 0.0 0.0 0.00 4.98 0.00 95 1014.2
20260510100026 18 71 0.0 0.0 0.00 4.98 0.00 95 1014.1
20260510094529 18 63 0.0 0.0 0.00 4.98 0.00 95 1014.0
20260510093035 18 79 0.0 0.0 0.00 4.98 0.00 95 1013.9
20260510091517 18 21 0.0 0.0 0.00 5.00 0.00 95 1014.0
20260510090024 18 30 0.0 0.0 0.00 5.03 0.00 95 1014.1
20260510084531 18 59 0.0 0.0 0.00 5.23 0.00 95 1014.0
20260510083035 18 16 0.0 0.0 0.00 5.31 0.00 95 1013.8
20260510081539 18 53 0.0 0.0 0.00 5.71 0.00 95 1013.7
20260510080027 18 41 0.0 0.0 0.00 5.71 0.00 95 1013.6
20260510074524 18 41 0.0 0.0 0.00 5.71 0.00 95 1013.5
20260510073028 18 41 0.0 0.0 0.00 5.71 0.00 95 1013.5
20260510071529 19 65 0.0 0.0 0.00 5.71 0.00 94 1013.4
20260510070004 19 23 0.0 0.0 0.00 5.71 0.00 94 1013.5
20260510064505 19 352 0.0 0.0 0.00 5.71 0.00 95 1013.7
20260510063004 19 5 0.0 0.0 0.00 5.71 0.00 95 1013.8
20260510061508 19 37 0.0 0.0 0.00 5.71 0.00 95 1013.8
20260510060002 19 53 0.0 0.0 0.00 5.71 0.00 95 1013.8
20260510054509 19 350 0.0 0.0 0.00 5.89 0.00 94 1013.7
20260510053005 19 350 0.0 0.0 0.00 6.50 0.00 94 1013.8
20260510051516 19 314 0.0 0.0 0.00 6.65 0.00 94 1013.9
20260510050012 19 314 0.0 0.0 0.00 6.65 0.00 94 1013.8
20260510044507 19 306 0.0 0.0 0.00 6.65 6.65 94 1013.9
20260510043004 19 153 0.0 0.0 0.00 6.65 6.65 94 1013.5
20260510041505 19 40 0.0 0.0 0.00 6.65 6.65 94 1013.6
20260510040010 20 40 0.0 0.0 0.00 6.65 6.65 94 1013.6
20260510034517 20 40 0.0 0.0 0.00 6.65 6.65 94 1014.1
20260510033005 20 342 0.0 0.0 0.00 6.65 6.65 94 1014.8
20260510031505 20 126 0.0 0.0 0.00 6.65 6.65 94 1014.5
20260510030008 20 126 0.0 0.0 0.00 6.65 6.65 94 1013.9
20260510024512 20 259 0.0 0.0 0.00 6.65 6.65 94 1014.2
20260510023016 20 259 0.0 0.0 0.00 6.65 6.65 94 1014.1
20260510021505 20 298 0.0 0.0 0.03 6.65 6.65 94 1014.4
20260510020005 20 225 0.0 6.4 0.05 6.65 6.65 94 1013.3
20260510014507 20 156 0.0 0.0 0.05 6.65 6.65 94 1012.7
20260510013016 20 60 0.0 0.0 0.05 6.65 6.65 94 1012.8
20260510011522 20 179 0.0 0.0 0.03 6.63 6.63 94 1013.1
20260510010004 20 250 0.0 0.0 0.00 6.60 6.60 94 1013.7
20260510004506 20 142 0.0 0.0 0.00 6.60 6.60 94 1012.9
20260510003014 20 77 0.0 0.0 0.03 6.60 6.60 94 1013.0
20260510001517 20 113 0.0 0.0 0.03 6.60 6.60 94 1012.8
20260510000024 20 144 0.0 0.0 0.03 6.63 6.60 94 1013.1
20260509234508 20 131 0.0 0.0 0.05 6.65 6.60 94 1013.2
20260509233011 20 161 0.0 0.0 0.03 6.63 6.58 94 1013.7
20260509231519 20 160 0.0 0.0 0.08 6.63 6.58 94 1013.4
20260509230024 20 160 0.0 0.0 0.08 6.68 6.58 94 1013.4
20260509224523 20 160 0.0 0.0 0.08 6.73 6.55 94 1012.4
20260509223010 20 160 0.0 0.0 0.08 6.73 6.55 94 1012.1
20260509221512 20 160 0.0 0.0 0.03 6.68 6.50 94 1012.5
20260509220019 20 212 0.0 9.7 0.03 6.71 6.50 94 1012.8
20260509214520 20 198 0.0 0.0 0.00 6.68 6.48 94 1012.7
20260509213026 20 292 0.0 0.0 0.00 6.71 6.48 94 1012.7
20260509211530 20 179 0.0 0.0 0.03 6.76 6.48 94 1011.5
20260509210018 20 211 0.0 8.0 0.10 6.81 6.48 94 1011.1